Location: Central Coast
(33.3208°S, 151.2336°E)
Time: 23:25:23
(UTC+11:00)

Vanguard 3 - Visible Passes

Search period start: 19 October 2017 00:00
Search period end: 29 October 2017 00:00
Orbit: 510 x 3263 km, 33.3° (Epoch: 18 October)

Date Brightness Start Highest point End Pass type
(mag) Time Alt. Az. Time Alt. Az. Time Alt. Az.
19 Oct 10.5 00:33:40 10° W 00:43:11 35° WNW 00:43:11 35° WNW visible
19 Oct 9.6 21:04:24 10° W 21:17:32 85° N 21:28:31 34° ENE visible
19 Oct 9.9 23:17:58 10° WSW 23:33:04 59° NW 23:33:04 59° NW visible
20 Oct 11.2 01:35:03 10° W 01:37:36 15° W 01:37:36 15° W visible
20 Oct 9.4 19:50:32 10° W 20:01:23 90° S 20:18:25 13° E visible
20 Oct 9.7 22:03:09 10° W 22:17:35 72° NNW 22:22:57 55° NE visible
21 Oct 10.5 00:17:52 10° W 00:27:30 34° WNW 00:27:30 34° WNW visible
21 Oct 9.5 20:48:59 10° W 21:01:14 82° NNW 21:12:53 30° ENE visible
21 Oct 10.0 23:02:16 10° W 23:17:25 54° NNW 23:17:25 54° NNW visible
22 Oct 11.2 01:19:40 10° W 01:21:58 14° W 01:21:58 14° W visible
22 Oct 9.3 19:35:18 10° W 19:45:23 89° N 20:02:50 10° E visible
22 Oct 9.7 21:47:39 10° W 22:01:05 67° NNW 22:07:23 48° NE visible
23 Oct 10.6 00:02:18 10° W 00:11:56 32° WNW 00:11:56 32° WNW visible
23 Oct 9.4 20:33:39 10° W 20:45:01 78° NNW 20:57:23 26° ENE visible
23 Oct 10.0 22:46:44 10° W 23:00:48 48° NNW 23:01:56 48° NNW visible
24 Oct 11.2 01:04:42 10° W 01:06:29 13° WNW 01:06:29 13° WNW visible
24 Oct 9.2 19:20:07 10° W 19:29:27 87° N 19:46:09 10° ENE visible
24 Oct 9.7 21:32:13 10° W 21:44:40 61° NNW 21:51:58 41° NNE visible
24 Oct 10.6 23:46:56 10° W 23:56:31 29° NW 23:56:31 29° NW visible
25 Oct 9.4 20:18:23 10° W 20:28:53 73° NNW 20:42:02 21° ENE visible
25 Oct 10.1 22:31:20 10° W 22:44:17 43° NNW 22:46:37 41° NNW visible
26 Oct 11.2 00:50:22 10° WNW 00:51:10 11° WNW 00:51:10 11° WNW visible
26 Oct 9.7 21:16:54 10° W 21:28:22 55° NNW 21:36:43 34° NNE visible
26 Oct 10.7 23:31:53 10° W 23:41:18 25° NW 23:41:18 25° NW visible
27 Oct 9.3 20:03:10 10° W 20:12:51 67° NNW 20:26:55 16° ENE visible
27 Oct 10.2 22:16:08 10° W 22:27:54 37° NNW 22:31:28 34° N visible
28 Oct 9.8 21:01:42 10° W 21:12:12 48° NNW 21:21:41 26° NNE visible
28 Oct 10.8 23:17:12 10° WNW 23:26:16 21° NW 23:26:16 21° NW visible
